Location: Maiden
(35.5760°N, 81.2120°W)
Time: 03:11:50
(UTC-04:00)

Cosmos 1346 Rocket - Pass Details

Date: 02 August 2020
Orbit: 533 x 545 km, 81.2° (Epoch: 11 August)

Event Time Altitude Azimuth Distance (km) Brightness Sun altitude
Rises 21:06:55 0° 180° (S) 2,670 6.0 -8.1°
Reaches altitude 10° 21:09:04 10° 177° (S) 1,785 5.1 -8.5°
Maximum altitude 21:12:57 63° 96° (E) 603 2.8 -9.2°
Drops below altitude 10° 21:16:53 10° 15° (NNE) 1,806 5.6 -9.9°
Sets 21:19:04 0° 13° (NNE) 2,704 6.6 -10.3°
